When you browse on this site, cookies collect data to enhance your experience and personalize the content and advertising you see.
Visit our Privacy Policy to learn more. By continuing to use the site, you agree to this use of cookies and data.
  • Em Portugal
  • Lista de países
  • Para 7 dias
  • Temperatura da água
  • Mapas de satélite
  • Mapa do tempo
  • Widgets de tempo
  • user-avatar
    Iniciar Sessão

    Previsão horária em Konstantyna

    Hoje, 25 Março, Segunda-feira

    Tempo Temperatura Precipitação Vento Pressão Humidade
    00:00 +10°C° 0 mm 1 m/s 712 mmHg 77%
    01:00 +9°C° 0 mm 2 m/s 712 mmHg 75%
    02:00 +9°C° 0 mm 2 m/s 712 mmHg 73%
    03:00 +9°C° 0 mm 2 m/s 712 mmHg 71%
    04:00 +8°C° 0 mm 2 m/s 712 mmHg 71%
    05:00 +8°C° 0 mm 2 m/s 712 mmHg 72%
    06:00 +9°C° 0 mm 2 m/s 712 mmHg 74%
    07:00 +12°C° 0 mm 2 m/s 712 mmHg 68%
    08:00 +14°C° 0 mm 2 m/s 712 mmHg 62%
    09:00 +16°C° 0 mm 2 m/s 712 mmHg 56%
    10:00 +17°C° 0 mm 2 m/s 712 mmHg 53%
    11:00 +18°C° 0 mm 2 m/s 712 mmHg 49%
    12:00 +19°C° 0 mm 2 m/s 712 mmHg 46%
    13:00 +19°C° 0.3 mm 2 m/s 712 mmHg 49%
    14:00 +19°C° 0.3 mm 3 m/s 711 mmHg 53%
    15:00 +18°C° 0.3 mm 3 m/s 711 mmHg 57%
    16:00 +16°C° 1 mm 2 m/s 710 mmHg 66%
    17:00 +15°C° 1 mm 2 m/s 710 mmHg 74%
    18:00 +13°C° 1 mm 1 m/s 709 mmHg 83%
    19:00 +12°C° 0.1 mm 1 m/s 710 mmHg 85%
    20:00 +11°C° 0.1 mm 1 m/s 710 mmHg 86%
    21:00 +9°C° 0.1 mm 0 m/s 710 mmHg 88%
    22:00 +9°C° 0 mm 0 m/s 709 mmHg 88%
    23:00 +9°C° 0 mm 0 m/s 709 mmHg 88%

    Amanhã, 26 Março, Terça-feira

    Tempo Temperatura Precipitação Vento Pressão Humidade
    00:00 +9°C° 0 mm 0 m/s 709 mmHg 88%
    01:00 +9°C° 0 mm 0 m/s 709 mmHg 87%
    02:00 +9°C° 0 mm 0 m/s 709 mmHg 87%
    03:00 +9°C° 0 mm 0 m/s 709 mmHg 86%
    04:00 +9°C° 0 mm 0 m/s 709 mmHg 88%
    05:00 +9°C° 0 mm 1 m/s 709 mmHg 90%
    06:00 +9°C° 0 mm 1 m/s 709 mmHg 91%
    07:00 +9°C° 0 mm 2 m/s 709 mmHg 86%
    08:00 +12°C° 0 mm 2 m/s 709 mmHg 80%
    09:00 +13°C° 0 mm 2 m/s 710 mmHg 74%
    10:00 +13°C° 0 mm 2 m/s 710 mmHg 73%
    11:00 +13°C° 0 mm 3 m/s 710 mmHg 73%
    12:00 +13°C° 0 mm 3 m/s 710 mmHg 73%
    13:00 +13°C° 0 mm 3 m/s 710 mmHg 72%
    14:00 +13°C° 0 mm 4 m/s 710 mmHg 72%
    15:00 +12°C° 0 mm 4 m/s 709 mmHg 71%
    16:00 +11°C° 0 mm 4 m/s 709 mmHg 74%
    17:00 +10°C° 0 mm 3 m/s 709 mmHg 77%
    18:00 +8°C° 0 mm 3 m/s 709 mmHg 81%
    19:00 +8°C° 0 mm 3 m/s 709 mmHg 83%
    20:00 +7°C° 0 mm 2 m/s 710 mmHg 86%
    21:00 +6°C° 0 mm 2 m/s 710 mmHg 88%
    22:00 +6°C° 0 mm 1 m/s 710 mmHg 89%
    23:00 +6°C° 0 mm 1 m/s 710 mmHg 91%

    Depois de amanhã, 27 Março, Quarta-feira

    Tempo Temperatura Precipitação Vento Pressão Humidade
    00:00 +5°C° 0 mm 1 m/s 710 mmHg 92%
    01:00 +6°C° 0 mm 1 m/s 710 mmHg 92%
    02:00 +6°C° 0 mm 1 m/s 710 mmHg 91%
    03:00 +6°C° 0 mm 1 m/s 710 mmHg 90%
    04:00 +6°C° 0 mm 1 m/s 710 mmHg 90%
    05:00 +6°C° 0 mm 1 m/s 710 mmHg 90%
    06:00 +5°C° 0 mm 0 m/s 710 mmHg 90%
    07:00 +7°C° 0 mm 1 m/s 711 mmHg 84%
    08:00 +8°C° 0 mm 1 m/s 711 mmHg 78%
    09:00 +10°C° 0 mm 1 m/s 712 mmHg 72%
    10:00 +9°C° 0 mm 2 m/s 711 mmHg 71%
    11:00 +10°C° 0 mm 2 m/s 711 mmHg 71%
    12:00 +11°C° 0 mm 3 m/s 711 mmHg 70%
    13:00 +11°C° 0.1 mm 3 m/s 711 mmHg 71%
    14:00 +11°C° 0.1 mm 3 m/s 711 mmHg 72%
    15:00 +11°C° 0.1 mm 3 m/s 711 mmHg 73%
    16:00 +10°C° 0 mm 3 m/s 711 mmHg 78%
    17:00 +9°C° 0 mm 3 m/s 711 mmHg 82%
    18:00 +8°C° 0 mm 2 m/s 711 mmHg 86%
    19:00 +7°C° 0 mm 2 m/s 712 mmHg 89%
    20:00 +7°C° 0 mm 1 m/s 712 mmHg 91%
    21:00 +7°C° 0 mm 1 m/s 712 mmHg 94%
    22:00 +7°C° 0 mm 1 m/s 712 mmHg 94%
    23:00 +7°C° 0 mm 1 m/s 713 mmHg 93%

    28 Março, Quinta-feira

    Tempo Temperatura Precipitação Vento Pressão Humidade
    00:00 +7°C° 0 mm 1 m/s 713 mmHg 93%
    01:00 +6°C° 0 mm 1 m/s 712 mmHg 93%
    02:00 +6°C° 0 mm 1 m/s 712 mmHg 93%
    03:00 +4°C° 0 mm 0 m/s 712 mmHg 93%
    04:00 +4°C° 0 mm 0 m/s 712 mmHg 94%
    05:00 +4°C° 0 mm 0 m/s 712 mmHg 94%
    06:00 +4°C° 0 mm 0 m/s 712 mmHg 94%
    07:00 +7°C° 0 mm 1 m/s 713 mmHg 86%
    08:00 +9°C° 0 mm 1 m/s 714 mmHg 78%
    09:00 +11°C° 0 mm 1 m/s 714 mmHg 71%
    10:00 +12°C° 0.1 mm 2 m/s 714 mmHg 68%
    11:00 +13°C° 0.1 mm 2 m/s 714 mmHg 65%
    12:00 +13°C° 0.1 mm 2 m/s 714 mmHg 63%
    13:00 +12°C° 0.2 mm 3 m/s 714 mmHg 66%
    14:00 +12°C° 0.2 mm 3 m/s 714 mmHg 69%
    15:00 +12°C° 0.2 mm 3 m/s 713 mmHg 72%
    16:00 +11°C° 0.2 mm 3 m/s 713 mmHg 78%
    17:00 +10°C° 0.2 mm 3 m/s 713 mmHg 84%
    18:00 +9°C° 0.2 mm 2 m/s 713 mmHg 90%
    19:00 +8°C° 0 mm 2 m/s 714 mmHg 92%
    20:00 +8°C° 0 mm 1 m/s 714 mmHg 94%
    21:00 +6°C° 0 mm 0 m/s 715 mmHg 95%
    22:00 +5°C° 0 mm 0 m/s 715 mmHg 95%
    23:00 +5°C° 0 mm 0 m/s 714 mmHg 95%

    29 Março, Sexta-feira

    Tempo Temperatura Precipitação Vento Pressão Humidade
    00:00 +5°C° 0 mm 0 m/s 714 mmHg 95%
    01:00 +5°C° 0 mm 0 m/s 714 mmHg 94%
    02:00 +4°C° 0 mm 0 m/s 714 mmHg 94%
    03:00 +4°C° 0 mm 0 m/s 714 mmHg 93%
    04:00 +4°C° 0 mm 0 m/s 714 mmHg 92%
    05:00 +4°C° 0 mm 0 m/s 714 mmHg 91%
    06:00 +5°C° 0 mm 0 m/s 715 mmHg 90%
    07:00 +7°C° 0 mm 0 m/s 715 mmHg 82%
    08:00 +9°C° 0 mm 0 m/s 716 mmHg 74%
    09:00 +11°C° 0 mm 0 m/s 716 mmHg 65%
    10:00 +13°C° 0 mm 1 m/s 716 mmHg 62%
    11:00 +15°C° 0 mm 1 m/s 716 mmHg 58%
    12:00 +16°C° 0 mm 1 m/s 716 mmHg 54%
    13:00 +16°C° 0 mm 1 m/s 716 mmHg 56%
    14:00 +16°C° 0 mm 2 m/s 715 mmHg 57%
    15:00 +16°C° 0 mm 2 m/s 715 mmHg 59%
    16:00 +14°C° 0 mm 2 m/s 715 mmHg 67%
    17:00 +13°C° 0 mm 2 m/s 715 mmHg 75%
    18:00 +10°C° 0 mm 2 m/s 714 mmHg 84%
    19:00 +9°C° 0 mm 2 m/s 715 mmHg 86%
    20:00 +8°C° 0 mm 2 m/s 715 mmHg 88%
    21:00 +9°C° 0 mm 1 m/s 715 mmHg 91%
    22:00 +8°C° 0 mm 1 m/s 715 mmHg 89%
    23:00 +8°C° 0 mm 1 m/s 715 mmHg 88%

    30 Março, Sábado

    Tempo Temperatura Precipitação Vento Pressão Humidade
    00:00 +8°C° 0 mm 1 m/s 715 mmHg 86%
    01:00 +8°C° 0 mm 1 m/s 715 mmHg 83%
    02:00 +8°C° 0 mm 1 m/s 714 mmHg 81%
    03:00 +7°C° 0 mm 1 m/s 714 mmHg 78%
    04:00 +7°C° 0 mm 2 m/s 715 mmHg 77%
    05:00 +7°C° 0 mm 2 m/s 715 mmHg 75%
    06:00 +7°C° 0 mm 2 m/s 715 mmHg 73%
    07:00 +10°C° 0 mm 2 m/s 715 mmHg 67%
    08:00 +13°C° 0 mm 2 m/s 716 mmHg 60%
    09:00 +16°C° 0 mm 3 m/s 716 mmHg 54%
    10:00 +17°C° 0 mm 2 m/s 716 mmHg 50%
    11:00 +18°C° 0 mm 2 m/s 716 mmHg 47%
    12:00 +19°C° 0 mm 2 m/s 715 mmHg 43%
    13:00 +19°C° 0 mm 2 m/s 715 mmHg 42%
    14:00 +20°C° 0 mm 1 m/s 715 mmHg 41%
    15:00 +20°C° 0 mm 1 m/s 714 mmHg 40%
    16:00 +18°C° 0 mm 1 m/s 714 mmHg 50%
    17:00 +16°C° 0 mm 2 m/s 713 mmHg 60%
    18:00 +14°C° 0 mm 2 m/s 713 mmHg 70%
    19:00 +13°C° 0 mm 2 m/s 713 mmHg 74%
    20:00 +12°C° 0 mm 1 m/s 713 mmHg 77%
    21:00 +11°C° 0 mm 1 m/s 713 mmHg 81%
    22:00 +11°C° 0 mm 1 m/s 713 mmHg 78%
    23:00 +11°C° 0 mm 1 m/s 712 mmHg 75%
    Mostrar mais